[Iaude] MPEC D43: 2017 DC36 [a=0.97,e=0.27,i=5.7,H=22.1]

mpec at mpcdb1.cfa.harvard.edu mpec at mpcdb1.cfa.harvard.edu
Fri Feb 23 07:31:17 EST 2018


M.P.E.C. 2018-D43                                Issued 2018 Feb. 23, 12:27 UT
 
     The Minor Planet Electronic Circulars contain information on unusual
         minor planets and routine data on comets.  They are published
    on behalf of Division F of the International Astronomical Union by the
          Minor Planet Center, Smithsonian Astrophysical Observatory,
                          Cambridge, MA 02138, U.S.A.

             Prepared using the Tamkin Foundation Computer Network

                              MPC at CFA.HARVARD.EDU
            URL https://www.minorplanetcenter.net/    ISSN 1523-6714


                                   2017 DC36
 
                           Revision to MPEC 2017-D75
 
Additional Observations:
     K17D36C |C2018 02 21.36528 15 05 26.05 -24 11 22.4          21.2 GUED043807
     K17D36C |C2018 02 21.36983 15 05 25.64 -24 11 28.1          21.2 GUED043807
     K17D36C |C2018 02 21.37406 15 05 25.26 -24 11 33.3          21.3 GUED043807
     K17D36C  C2018 02 22.42799 15 04 10.06 -24 34 05.7          20.4 GUED043I52
     K17D36C  C2018 02 22.43130 15 04 09.77 -24 34 10.7          20.4 GUED043I52
     K17D36C  C2018 02 22.43463 15 04 09.48 -24 34 14.2          20.6 GUED043I52
 
Observer details:
807 Cerro Tololo.  Observers T. Linder, R. Holmes.  0.61-m f/6.5 astrograph
    + CCD.
I52 Steward Observatory, Mt. Lemmon Station.  Observer D. C. Fuls.  Measurers
    E. J. Christensen, D. C. Fuls, A. R. Gibbs, A. D. Grauer, J. A. Johnson,
    R. A. Kowalski, S. M. Larson, G. J. Leonard, R. G. Matheny, R. L. Seaman,
    F. C. Shelly.  1.0-m reflector + CCD.
 
First and last observations above in comparison with prediction:
Residuals in seconds of arc, reference and Delta-T
180221 807  0.3-  0.3-    180222 I52  1.4-  0.6+    MPO409584   +0.00042 day
 
Orbital elements:
2017 DC36                                                Earth MOID = 0.0004 AU
Epoch 2018 Mar. 23.0 TT = JDT 2458200.5                 MPC
M 125.80723              (2000.0)            P               Q
n   1.02600995     Peri.   70.72988     +0.75299091     -0.65617568
a   0.9735726      Node   330.21735     +0.56023368     +0.67863482
e   0.2743434      Incl.    5.70517     +0.34517085     +0.32998221
P   0.96           H   22.1           G   0.15           U   3
Residuals in seconds of arc
170222 T08  0.2-  0.3-    170225 K83  0.4+  0.6+    170303 H21  0.0   0.1-
170222 T08  0.5-  0.0     170225 K83  0.5+  0.1-    170303 H21  0.0   0.2-
170222 T08  0.2-  0.1-    170225 K83  0.2+  0.1-    170303 H21  0.0   0.1-
170222 T08  0.3-  0.0     170225 104  0.6-  0.7+    170303 H21  0.2-  0.1-
170223 T05  0.0   0.0     170225 204  0.2-  0.1+    170303 H21  0.0   0.1-
170223 T05  0.1-  0.0     170225 204  0.2-  0.1+    170303 H21  0.0   0.4-
170223 T05  0.3+  0.0     170225 204  0.1-  0.0     170303 H45  0.2-  0.0
170223 T05  0.1-  0.0     170225 204  0.1-  0.0     170303 H45  0.3-  0.1+
170223 L04  0.1+  0.2-    170225 204  0.1+  0.4-    170303 H45  0.2-  0.0
170223 L04  0.2-  0.1+    170225 104  0.3+  0.3-    170303 H45  0.2-  0.1-
170223 L04  0.1-  0.2+    170226 104  0.8-  0.3-    170303 H45  0.2-  0.0
170223 L04  0.2-  0.7-    170226 H45  0.2-  0.0     170303 H45  0.2-  0.0
170223 J95  0.1+  0.0     170226 H45  0.2-  0.1-    170304 W25  0.2+  0.1+
170223 J95  0.0   0.0     170226 H45  0.2-  0.1+    170304 W25  0.2+  0.2+
170223 J95  0.1+  0.1-    170226 H45  0.1-  0.0     170304 H45  0.0   0.2-
170224 K92  0.2+  0.0     170226 H45  0.2-  0.1-    170304 H45  0.0   0.0
170224 K92  0.0   0.0     170226 H45  0.2-  0.0     170304 H45  0.1-  0.1-
170224 K92  0.1+  0.0     170226 H45  0.2-  0.0     170304 H45  0.1+  0.3-
170224 J22  0.0   0.1-    170226 H45  0.3-  0.0     170304 H45  0.1+  0.1-
170224 J22  0.1-  0.1+    170226 G40  0.1+  0.1+    170304 H45  0.1-  0.2-
170224 J22  0.3+  0.6+    170226 G40  0.1+  0.0     170304 T05  0.5-  0.4+
170224 Y00  0.2+  0.2-    170227 G45  0.1+  0.0     170304 T05  0.3-  0.0
170224 Y00  0.2+  0.4-    170227 G45  0.2+  0.1-    170304 T05  0.0   0.1-
170224 Y00  0.3-  0.4-    170227 G45  0.1+  0.1-    170304 T08  0.1+  0.3-
170224 Y00  0.0   0.1+    170227 G45  0.2+  0.1+    170304 T05  0.1+  0.0
170224 Y00  0.1+  0.1+    170227 G45  0.2+  0.0     170304 T08  0.3+  0.0
170224 Y00  0.3-  0.1-    170227 G45  0.2+  0.2-    170304 T08  0.3+  0.0
170224 G96  0.1+  0.0     170227 H01  0.1+  0.1-    170304 T08  0.0   0.2+
170224 G96  0.1+  0.3-    170227 H01  0.4+  0.3-    170305 W25  0.0   0.2-
170224 G96  0.1+  0.1+    170227 H01  0.2-  0.0     170305 W25  0.1-  0.4-
170224 703  0.6+  1.0-    170227 H01  0.2+  0.0     170305 H21  0.2+  0.2+
170224 G96  0.1+  0.3+    170227 H01  0.5-  0.1+    170305 H21  0.2+  0.1+
170224 703  0.7+  0.7-    170227 H01  0.3+  0.2-    170305 H21  0.3+  0.2+
170224 703  0.9+  0.8-    170227 H01  0.2+  0.1-    170305 H21  0.1+  0.1+
170224 703  0.8+  0.8-    170227 H01  0.1+  0.0     170305 H21  0.1-  0.0
170224 474  0.1-  0.1-    170227 H01  0.0   0.0     170305 H21  0.0   0.0
170224 474  0.1-  0.1-    170227 G40  0.3+  0.1+    170305 H21  0.0   0.1+
170224 474  0.2+  0.2-    170228 G40  0.0   0.1-    170305 474  0.1+  0.1-
170224 474  0.3+  0.1-    170228 G40  0.1-  0.0     170305 474  0.1+  0.4-
170224 900  0.2-  0.2+    170228 G40  0.1-  0.1+    170305 474  0.0   0.0
170224 900  0.2-  0.0     170228 G40  0.0   0.0     170305 474  0.1-  0.2-
170224 900  0.1-  0.0     170228 G40  0.1-  0.0     170306 W88  0.1+  0.1+
170224 Q62  0.1-  0.0     170228 474  0.0   0.0     170306 W88  0.2+  0.3-
170224 Q62  0.1-  0.1+    170228 474  0.0   0.0     170306 W88  0.0   0.0
170224 Q62  0.2-  0.0     170228 474  0.1-  0.0     170307 Q62  0.1+  0.4+
170224 Q62  0.0   0.0     170228 D29  0.0   0.1+    170307 Q62  0.0   0.1+
170224 Q62  0.1+  0.1+    170228 D29  0.1+  0.0     170308 W25  0.1+  0.2+
170224 Q62  0.0   0.2+    170301 G45  0.1-  0.0     170308 W25  0.1+  0.4-
170224 Q62  0.4-  0.1+    170301 G45  0.0   0.1-    170308 H21  0.1+  0.0
170224 Q62  0.2-  0.1+    170301 G45  0.1+  0.1-    170308 H21  0.2+  0.1-
170224 Q62  0.2+  0.0     170301 G45  0.0   0.1-    170308 H21  0.1-  0.3-
170224 Q62  0.2-  0.1+    170301 G45  0.0   0.0     170308 H21  0.0   0.2-
170224 Q62  0.2-  0.0     170301 G45  0.0   0.0     170308 H21  0.0   0.2-
170224 Q62  0.1-  0.0     170301 G45  0.1+  0.2+    170308 H21  0.2-  0.3-
170224 Q62  0.1-  0.1+    170301 G45  0.1+  0.0     170308 H21  0.1+  0.2+
170224 Q62  0.0   0.1+    170301 G45  0.1-  0.3+    170308 H45  0.0   0.4+
170224 O75  0.2+  0.1+    170301 G45  0.1+  0.1-    170308 H45  0.3-  0.3+
170224 O75  0.1+  0.2+    170301 474  0.0   0.1+    170308 H45  0.7+  0.0
170224 O75  0.0   0.1+    170301 474  0.2+  0.0     170308 H45  0.2-  0.0
170224 O75  0.1+  0.2+    170301 474  0.1+  0.0     170308 H45  0.3+  0.5+
170224 300  0.2-  0.1-    170301 Z45  0.0   0.7+    170308 H45  0.2-  0.2+
170224 300  0.2+  0.1-    170301 Z45  0.2-  0.1+    170308 160  1.5-  1.2+
170224 300  0.4+  0.3-    170301 Z45  0.2+  0.2+    170308 160  0.6-  0.8+
170224 300  0.3+  0.2+    170301 107  0.7-  0.5-    170308 160  0.1+  0.6+
170224 300  0.3+  0.1+    170301 107  0.2-  0.4-    170309 W25  0.1+  0.2+
170224 300  0.2+  0.2+    170301 107  0.3+  0.8-    170309 W25  0.2+  0.2+
170224 C27  0.3-  0.1+    170301 107  0.3+  1.0-    170309 H21  0.2-  0.2+
170224 C27  0.4-  0.4+    170302 H21  0.1-  0.1+    170309 H21  0.1+  0.0
170224 K61  0.0   0.4+    170302 H21  0.2-  0.0     170309 H21  0.0   0.3+
170224 K61  0.2-  0.2+    170302 H21  0.1-  0.1-    170309 H21  0.0   0.2+
170224 K61  0.1+  0.2+    170302 H21  0.1-  0.0     170309 H21  0.4-  0.0
170224 K61  0.2+  0.4+    170302 H45  0.2-  0.1+    170314 926  0.2-  0.4-
170224 K61  0.2+  0.4+    170302 H21  0.2-  0.1-    170314 926  0.4+  0.1-
170224 K61  0.2+  0.1+    170302 H45  0.3-  0.0     170314 926  0.0   0.2-
170224 K61  0.2+  0.2+    170302 703  0.0   0.3+    170315 H21  0.1+  0.1-
170224 K61  0.0   0.3+    170302 H45  0.3-  0.0     170315 H21  0.1+  0.0
170224 K61  0.2-  0.2+    170302 H21  0.1-  0.1+    170315 H21  0.1+  0.1-
170224 C27  0.6-  0.1+    170302 H45  0.2-  0.0     170315 H21  0.0   0.3-
170224 C43  0.0   0.2+    170302 H45  0.3-  0.0     170316 H21  0.0   0.3-
170224 C43  0.0   0.1+    170302 H21  0.1-  0.0     170316 H21  0.0   0.1+
170224 C43  0.1+  0.0     170302 H45  0.2-  0.1-    170316 H21  0.0   0.1+
170224 C43  0.1-  0.0     170302 H45  0.3-  0.1-    170318 H21  0.1+  0.1+
170224 G34  0.1+  0.1+    170302 H21  0.0   0.0     170318 H21  0.2+  0.0
170224 C43  0.0   0.1+    170302 H45  0.3-  0.1-    170318 H21  0.1+  0.1+
170224 C27  0.5-  0.4+    170302 H21  0.0   0.0     170319 926  0.1+  0.2-
170224 C43  0.1+  0.1+    170302 703  0.4+  0.5+    170319 G96  0.1+  0.0
170224 G34  0.2+  0.3-    170302 703  0.5+  0.2+    170319 G96  0.2+  0.1-
170224 G34  0.1+  0.0     170302 703  0.5-  0.3-    170319 926  0.2+  0.1-
170224 G34  0.0   0.0     170302 G96  0.1+  0.1+    170319 G96  0.2+  0.1-
170224 G34  0.1+  0.3-    170302 G96  0.2-  0.3+    170319 G96  0.2+  0.0
170224 C23  0.2-  0.1+    170302 G96  0.2+  0.1+    170319 926  0.2+  0.1-
170224 C23  0.1-  0.0     170302 G96  0.1+  0.0     170321 H45  0.4-  0.3+
170224 C23  0.1-  0.1+    170302 D29  0.2+  0.1-    170321 H45  0.5-  0.6+
170224 C23  0.2-  0.1+    170302 D29  0.0   0.0     170321 H45  0.6-  0.6+
170224 C23  0.1-  0.0     170302 D29  0.1+  0.1+    170321 H45  0.5-  0.2+
170224 958 (1.6-  0.4+)   170302 215  0.0   0.1-    170327 807  0.0   0.3-
170224 958  1.5-  0.4+    170302 215  0.0   0.2-    170327 807  0.1+  0.6-
170224 K30  0.2-  0.3+    170302 215  0.1+  0.2-    170327 807  0.2+  0.2-
170224 K30  0.1-  0.3+    170303 G45  0.2+  0.1+    170420 807  0.1+  0.2+
170224 958  1.4-  0.4+    170303 G45  0.2+  0.2-    170420 807  0.0   0.4+
170224 K30  0.2-  0.1+    170303 G45  0.1+  0.0     170420 H21  0.1+  0.7-
170224 K61  0.5+  0.1-    170303 G45  0.1-  0.1+    170420 807  0.4+  0.5+
170224 K61  0.9+  0.1-    170303 G45  0.2-  0.0     170420 H21  0.0   0.4-
170224 K61  0.8+  0.5-    170303 G45  0.2+  0.1+    170420 H21  0.0   0.5-
170224 K61  0.2+  0.5-    170303 G45  0.1-  0.0     170423 H21  0.1-  0.3-
170225 G45  0.3-  0.8+    170303 G45  0.1+  0.2+    170423 H21  0.0   0.4-
170225 G45  0.1-  0.4+    170303 G45  0.3-  0.3+    170423 H21  0.0   0.0
170225 G45  0.1+  0.1+    170303 G45  0.2-  0.1+    180221 807  0.7+  0.3-
170225 G45  0.2+  0.1-    170303 G45  0.0   0.1-    180221 807  0.3+  0.2-
170225 G45  0.3+  0.2+    170303 H21  0.0   0.2-    180221 807  0.1-  0.0
170225 I52  0.1+  0.1+    170303 H21  0.0   0.2-    180222 I52  0.3-  0.5+
170225 I52  0.2+  0.0     170303 H21  0.0   0.2-    180222 I52  0.3-  0.2-
170225 I52  0.1+  0.1-    170303 H21  0.1+  0.2-    180222 I52  0.3-  0.5+
170225 I52  0.1+  0.0     170303 H21  0.1+  0.3-

Ephemeris:
2017 DC36                a,e,i = 0.97, 0.27, 6                   q = 0.7065
Date    TT    R. A. (2000) Decl.     Delta      r     Elong.  Phase     V
2018 01 24    15 22 55.5 -14 22 39   0.2599  0.9357    71.7    93.0    22.3
...
2018 02 08    15 15 36.1 -19 30 21   0.2580  1.0074    87.2    78.0    21.9
...
2018 02 16    15 10 37.4 -22 18 37   0.2509  1.0430    95.7    70.5    21.7
...
2018 02 22    15 04 40.4 -24 24 41   0.2434  1.0682   102.4    64.7    21.5
2018 02 23    15 03 25.6 -24 45 31   0.2421  1.0723   103.6    63.8    21.4
2018 02 24    15 02 05.6 -25 06 17   0.2407  1.0763   104.7    62.8    21.4
...
2018 03 02    14 52 06.9 -27 07 58   0.2320  1.0995   112.1    56.6    21.2
...
2018 03 10    14 32 23.3 -29 34 15   0.2205  1.1279   122.8    47.7    20.9
...
2018 03 25    13 33 04.4 -31 48 45   0.2081  1.1730   144.6    29.5    20.3

A. U. Tomatic                (C) Copyright 2018 MPC           M.P.E.C. 2018-D43



More information about the Iaude mailing list